Weather History for MNMG - April, 2013

Change the Weather History Date:

Sunday, April 28, 2013

  Actual Average Record
Temperature  
Mean Temperature 83 °F -  
Max Temperature 93 °F 91 °F 98 °F (1998)
Min Temperature 73 °F 73 °F 73 °F (2008)
Cooling Degree Days 18    
Growing Degree Days 33 (Base 50)    
Moisture  
Dew Point 68 °F    
Average Humidity 60    
Maximum Humidity 83    
Minimum Humidity 38    
Precipitation  
Precipitation 0.00 in - - ()
Sea Level Pressure  
Sea Level Pressure 29.82 in    
Wind  
Wind Speed 8 mph ()    
Max Wind Speed 16 mph    
Max Gust Speed -    
Visibility 6.2 miles    
Events      
Averages and records for this station are not official NWS values.
T = Trace of Precipitation, MM = Missing Value Source: Averaged Metar Reports

Daily Weather History Graph

Daily Weather History Graph

Search for Another Location

Airport or City:

Trip Planner

Search our weather history database for the weather conditions in past years. The results will help you decide how hot, cold, wet, or windy it might be!

Date:

Astronomy

Apr. 28, 2013 Rise Set
Actual Time 5:26 AM CST 5:58 PM CST
Civil Twilight 5:04 AM CST 6:20 PM CST
Nautical Twilight 4:38 AM CST 6:45 PM CST
Astronomical Twilight 4:12 AM CST 7:11 PM CST
Moon 9:10 PM CST (4/28) 8:00 AM CST (4/28)
Length of Visible Light 13h 16m
Length of Day
12h 32m
Waning Gibbous, 88% of the Moon is Illuminated
Apr 28
Waning Gibbous
May 2
Last Quarter
May 9
New
May 17
First Quarter
May 24
Full

Hourly Weather History & Observations

Time (CST) Temp. Heat Index Dew Point Humidity Pressure Visibility Wind Dir Wind Speed Gust Speed Precip Events Conditions
12:00 AM 78.8 °F - 71.6 °F 78% 29.86 in 6.2 mi ESE 9.2 mph - N/A   Scattered Clouds
1:00 AM 78.8 °F - 69.8 °F 74% 29.86 in 6.2 mi ESE 6.9 mph - N/A   Scattered Clouds
2:00 AM 77.0 °F - 69.8 °F 78% 29.86 in 6.2 mi East 4.6 mph - N/A   Scattered Clouds
3:00 AM 75.2 °F - 68.0 °F 78% 29.86 in 6.2 mi Calm Calm - N/A   Scattered Clouds
4:00 AM 73.4 °F - 68.0 °F 83% 29.83 in 6.2 mi Calm Calm - N/A   Scattered Clouds
5:00 AM 73.4 °F - 68.0 °F 83% 29.83 in 6.2 mi Calm Calm - N/A   Scattered Clouds
6:00 AM 75.2 °F - 69.8 °F 83% 29.86 in 6.2 mi East 4.6 mph - N/A   Scattered Clouds
7:00 AM 80.6 °F 83.9 °F 69.8 °F 70% 29.86 in 6.2 mi East 9.2 mph - N/A   Mostly Cloudy
8:00 AM 84.2 °F 87.3 °F 68.0 °F 58% 29.86 in 6.2 mi East 9.2 mph - N/A   Mostly Cloudy
9:00 AM 86.0 °F 89.4 °F 68.0 °F 55% 29.89 in 6.2 mi East 16.1 mph - N/A   Scattered Clouds
10:00 AM 87.8 °F 90.4 °F 66.2 °F 49% 29.86 in 6.2 mi East 13.8 mph - N/A   Scattered Clouds
11:00 AM 91.4 °F 94.0 °F 66.2 °F 43% 29.86 in 6.2 mi East 16.1 mph - N/A   Scattered Clouds
12:00 PM 91.4 °F 94.0 °F 66.2 °F 43% 29.83 in 6.2 mi East 11.5 mph - N/A   Scattered Clouds
1:00 PM 93.2 °F 96.2 °F 66.2 °F 41% 29.80 in 6.2 mi SE 16.1 mph - N/A   Scattered Clouds
2:00 PM 93.2 °F 96.2 °F 66.2 °F 41% 29.77 in 6.2 mi East 11.5 mph - N/A   Scattered Clouds
3:00 PM 93.2 °F 96.2 °F 66.2 °F 41% 29.74 in 6.2 mi East 16.1 mph - N/A   Scattered Clouds
4:00 PM 93.2 °F 94.9 °F 64.4 °F 38% 29.74 in 6.2 mi ESE 16.1 mph - N/A   Mostly Cloudy
5:00 PM 91.4 °F 94.0 °F 66.2 °F 43% 29.74 in 6.2 mi East 16.1 mph - N/A   Mostly Cloudy
6:00 PM 87.8 °F 90.4 °F 66.2 °F 49% 29.74 in 6.2 mi ESE 9.2 mph - N/A   Mostly Cloudy
7:00 PM 86.0 °F 89.4 °F 68.0 °F 55% 29.77 in 6.2 mi ESE 9.2 mph - N/A   Mostly Cloudy
8:00 PM 84.2 °F 87.3 °F 68.0 °F 58% 29.80 in 6.2 mi East 6.9 mph - N/A   Mostly Cloudy
9:00 PM 82.4 °F 85.4 °F 68.0 °F 62% 29.83 in 6.2 mi East 9.2 mph - N/A   Mostly Cloudy
10:00 PM 80.6 °F 83.9 °F 69.8 °F 70% 29.83 in 6.2 mi East 9.2 mph - N/A   Mostly Cloudy
11:00 PM 80.6 °F 83.9 °F 69.8 °F 70% 29.86 in 6.2 mi East 6.9 mph - N/A   Mostly Cloudy